Dewpoint
58 58 58 59 59 59 59 59 60 60 61 61 62 62 61 60 60 60 61 60 61 60 61 62 63 63 62 63 63 62 57 44 34 32 24 29 45 63 62 63 63 64 59 41 36 31 27 24 26 34 36 37 39 38 42 40 39 40 28 24 23 23 22 25 21 23 25 20 21 21 21 19 19 23 22 23 23 23 24 25 26 25 25 25 31 32 30 31
57 57 57 58 58 58 58 59 60 60 60 61 61 61 61 60 60 60 61 60 60 60 61 62 62 62 63 62 61 61 51 43 36 32 26 51 58 60 62 63 64 63 58 37 31 29 26 21 29 32 32 30 40 36 38 37 38 30 30 21 17 24 23 22 21 22 20 20 20 21 21 20 19 22 22 20 21 22 22 24 25 24 25 25 26 28 28 28
56 57 57 57 57 58 58 58 59 59 60 60 60 61 61 60 59 60 60 61 60 60 60 62 62 61 61 62 61 59 50 46 34 28 32 57 59 62 63 63 63 63 48 34 34 26 23 24 29 29 30 29 32 32 33 32 35 30 26 20 19 29 24 22 22 21 22 21 20 21 21 21 20 21 22 20 20 22 21 21 24 24 24 24 25 25 28 26
56 56 56 56 57 57 58 58 58 59 59 59 60 60 60 61 61 60 60 60 61 60 60 61 62 61 61 61 61 61 47 38 27 29 35 53 58 61 62 62 61 56 41 36 35 34 30 29 28 27 31 27 31 34 28 32 29 32 22 20 22 25 22 21 23 21 22 21 21 20 21 20 21 21 21 20 19 20 20 21 22 22 24 24 25 27 28 26
56 56 56 56 57 57 57 57 58 58 59 59 60 60 60 60 61 61 61 60 60 61 60 60 62 62 61 61 56 58 41 26 30 36 42 57 59 61 61 62 57 48 43 33 29 28 27 25 25 30 30 22 30 27 22 28 29 30 19 21 23 26 21 20 22 23 22 21 20 20 20 20 22 22 21 20 19 18 19 21 22 21 22 24 24 27 28 25
56 56 56 56 56 57 56 57 58 58 59 59 59 59 60 60 60 60 59 59 59 60 60 60 61 61 61 60 51 47 35 9 36 39 57 56 59 59 60 58 53 34 29 25 27 29 27 25 25 24 22 23 25 22 22 23 25 21 20 19 22 24 20 20 21 22 21 20 20 20 20 21 20 20 21 20 19 19 21 22 22 22 23 24 24 27 27 26
56 56 56 56 56 56 56 57 58 58 59 59 59 59 60 60 60 60 60 60 59 60 60 61 61 61 60 58 51 38 33 35 40 45 54 57 56 57 60 55 49 38 27 22 25 27 29 25 24 26 25 24 22 20 21 25 23 19 16 19 21 24 21 21 21 24 21 20 19 20 21 20 20 19 21 21 21 21 21 21 21 21 23 23 24 26 26 26
56 57 56 56 56 56 56 57 57 57 57 58 59 59 60 60 60 60 60 60 61 60 60 60 61 59 57 54 42 36 36 31 35 44 52 54 45 52 50 42 38 42 26 23 24 25 30 26 24 26 21 19 21 21 24 21 20 19 17 21 22 24 23 24 22 22 22 20 19 21 19 19 20 20 20 20 21 21 21 21 21 21 22 23 23 24 26 25
56 56 56 56 56 56 56 57 57 57 57 58 58 58 59 60 60 60 60 60 60 60 59 60 61 60 56 44 37 29 25 44 36 40 46 46 40 47 48 33 35 30 30 31 28 34 33 29 27 26 22 19 25 20 21 17 17 20 20 22 24 22 21 20 20 21 21 21 20 20 19 19 19 22 19 19 20 21 22 21 21 22 22 22 22 23 24 24
56 56 56 56 56 56 56 56 56 57 57 58 58 59 59 59 59 59 60 60 60 59 59 61 61 59 48 43 37 19 36 37 41 43 41 42 40 40 41 47 32 30 27 30 26 26 27 30 30 31 30 25 25 20 23 20 18 22 22 24 22 22 21 21 20 20 20 21 19 19 19 19 20 19 17 18 20 21 21 21 21 21 21 21 22 24 23 23
56 56 56 56 56 56 56 56 56 57 58 58 58 59 59 59 59 59 59 60 59 59 60 60 61 58 45 35 29 18 43 43 39 44 41 45 43 37 44 45 41 31 28 35 30 32 30 32 37 32 34 22 23 20 20 18 22 22 21 20 20 21 20 20 20 19 19 19 19 19 19 18 18 23 17 18 20 21 20 21 20 21 21 21 22 22 26 22
56 56 56 56 56 56 56 56 56 57 57 58 58 58 58 59 59 59 59 59 59 59 60 59 58 48 35 32 28 30 38 41 44 45 45 48 45 47 47 43 40 46 29 26 38 44 41 38 38 23 21 25 20 20 20 22 21 20 19 17 17 18 18 20 18 19 20 18 18 17 16 16 18 17 19 19 20 20 20 20 21 21 21 23 22 22 24 23
57 56 56 56 56 55 55 56 55 56 56 57 57 57 58 58 59 59 59 58 58 59 58 57 50 46 39 27 30 41 40 40 43 42 41 45 45 43 43 45 45 40 40 28 36 44 43 38 35 26 30 25 22 19 23 23 20 19 19 18 16 17 17 20 19 18 19 18 18 17 15 12 16 17 18 19 19 20 19 20 20 22 21 21 22 21 23 23
57 56 56 56 55 55 55 55 55 56 56 57 57 57 58 58 58 58 58 58 60 61 60 57 55 43 30 22 35 38 40 41 40 42 44 43 35 41 44 43 44 42 47 41 42 42 42 35 36 29 32 22 20 26 20 19 20 18 19 20 20 19 16 20 20 18 18 20 17 17 19 14 16 17 19 21 19 18 18 18 19 21 22 21 23 22 22 23
57 56 56 56 55 55 55 55 55 55 56 57 57 57 58 58 58 58 58 60 61 61 58 53 53 40 26 24 35 38 53 40 36 45 44 33 34 37 37 38 39 40 38 41 43 42 35 39 36 26 23 24 26 21 19 19 18 18 15 18 25 18 19 19 21 18 17 18 17 17 20 17 17 18 20 20 19 18 17 17 18 20 21 21 21 21 20 22
57 57 56 56 55 55 55 55 55 56 56 56 57 57 57 57 57 57 60 59 59 59 59 51 43 39 27 21 38 53 40 34 32 43 43 39 43 33 43 40 40 38 36 33 36 35 32 35 26 24 23 20 20 21 21 23 23 20 16 24 21 25 21 16 22 19 20 18 18 17 15 15 14 18 18 19 18 18 18 17 18 18 19 20 20 20 20 21
57 57 56 56 55 55 55 55 55 55 56 56 57 57 57 56 57 59 59 56 57 56 52 39 40 36 16 33 37 32 33 39 44 44 43 40 39 40 39 38 35 34 37 34 37 37 30 26 29 28 25 22 20 25 22 23 20 22 24 16 28 16 15 12 19 16 23 19 17 17 16 16 16 17 18 18 19 18 17 17 18 19 19 19 21 20 20 20
57 57 56 56 56 56 55 55 55 55 55 56 56 56 55 56 57 58 54 53 53 52 47 47 46 28 23 33 25 27 43 38 45 43 45 37 41 36 36 29 34 36 36 30 32 29 31 26 29 25 27 23 19 23 23 15 21 20 19 19 14 18 16 13 15 17 16 18 17 17 16 16 17 17 17 18 18 18 18 18 18 18 19 20 20 21 19 20
57 57 57 56 56 55 55 55 55 55 55 56 56 54 53 52 49 46 38 35 39 29 20 31 24 17 14 22 32 35 42 43 41 42 34 38 40 36 35 33 37 24 29 25 25 28 30 31 32 28 24 22 19 19 19 23 18 14 16 15 18 17 13 16 17 18 16 16 16 16 17 16 17 17 18 18 18 18 18 18 19 18 18 19 20 22 21 21
57 57 56 56 56 55 55 55 55 55 55 54 51 47 44 34 35 23 31 30 24 24 25 27 29 29 32 28 33 40 43 40 34 37 40 39 36 33 27 30 40 34 26 26 33 30 34 27 26 24 23 23 22 20 20 20 19 21 27 26 20 21 19 19 19 17 17 17 17 18 18 17 18 18 18 19 19 20 19 18 19 20 20 20 20 21 22 21
57 57 56 56 55 55 55 55 55 55 55 53 48 37 17 23 18 16 23 22 28 30 23 24 27 25 20 36 42 38 32 32 32 37 40 40 34 27 26 26 28 27 27 31 35 29 28 25 26 26 24 22 22 20 19 19 18 19 22 24 19 27 17 18 19 16 19 18 16 17 18 19 18 18 18 18 18 18 18 19 19 18 19 22 22 22 23 21
57 57 57 56 55 55 54 55 54 55 53 48 40 30 28 27 36 34 27 17 40 39 35 34 33 24 27 31 38 39 36 27 32 37 39 37 28 25 24 23 26 21 32 32 28 27 27 24 23 27 23 20 20 19 19 18 21 23 21 23 23 19 24 20 20 20 19 19 17 17 18 18 19 19 20 20 19 19 20 21 20 20 22 22 22 23 22 23
57 57 56 56 55 54 54 54 54 53 48 44 40 30 31 43 46 47 40 33 31 40 36 36 27 28 28 35 39 35 26 25 18 37 36 35 28 27 24 20 23 26 29 25 25 29 26 26 24 23 22 20 17 17 17 20 23 23 23 21 19 26 20 19 22 19 19 18 20 21 19 20 19 19 20 21 20 20 23 23 24 26 24 24 23 22 23 22
56 56 56 55 55 54 54 54 53 49 49 46 41 39 46 45 46 48 40 28 25 30 33 38 29 31 30 24 36 30 24 23 23 25 36 32 26 31 24 20 22 25 20 24 22 24 19 26 24 22 27 21 20 19 18 19 18 27 27 24 21 26 22 19 18 20 20 21 24 19 21 20 20 17 18 19 21 20 21 21 22 24 30 29 32 29 26 22
56 56 56 55 55 55 54 53 48 49 49 45 40 42 44 44 46 46 34 27 25 27 40 37 42 42 35 41 39 29 32 30 31 31 36 33 25 23 22 25 21 20 22 25 24 28 24 25 27 21 25 27 28 17 23 27 20 24 29 24 24 26 21 25 25 20 18 19 19 23 7 6 23 20 20 20 20 18 19 20 21 21 22 28 25 26 27 30
56 56 56 55 55 54 54 49 47 50 48 42 39 44 44 44 44 45 26 22 23 27 26 21 40 28 43 32 40 38 26 23 30 31 35 34 34 25 24 22 21 23 23 27 23 28 24 24 30 29 28 29 29 26 31 27 22 22 21 30 26 25 27 25 24 22 16 15 22 22 10 10 15 8 14 16 18 17 21 24 22 22 25 25 26 26 25 26
57 56 56 55 54 54 47 40 51 49 43 43 47 45 44 44 44 44 4 17 12 29 22 34 28 33 40 35 35 30 16 27 27 30 29 35 29 34 21 21 23 23 26 27 24 23 25 23 26 29 30 30 27 21 31 23 24 19 29 29 28 27 25 26 24 23 19 24 26 22 20 15 16 12 10 13 14 13 14 15 19 19 16 24 25 26 26 27
57 57 56 55 54 53 48 51 50 47 41 45 46 42 43 45 46 41 5 -5 7 36 27 28 34 41 38 34 36 22 24 26 24 27 24 30 28 26 24 22 22 23 23 27 20 31 25 28 27 28 27 24 24 28 33 29 24 25 27 29 28 26 27 26 24 20 20 17 18 20 26 17 17 19 16 17 14 15 15 16 18 20 23 23 27 25 27 27
57 56 56 55 54 53 53 51 49 47 46 47 44 44 44 45 39 19 11 2 31 28 38 27 36 34 32 32 29 27 25 29 21 24 31 27 31 25 23 24 24 23 21 27 24 30 24 30 29 32 26 23 29 23 27 32 24 27 27 27 26 26 25 24 19 18 18 17 20 18 23 12 10 20 15 18 18 17 18 18 18 21 23 28 28 26 25 26
57 57 56 55 53 51 50 47 49 48 47 45 44 43 41 41 17 13 4 7 33 13 26 31 29 31 33 29 29 28 26 26 21 23 23 24 26 28 23 26 22 23 28 23 27 30 24 27 29 26 27 30 24 24 26 26 28 28 29 27 25 24 21 19 19 18 20 18 20 20 22 13 10 17 18 18 20 18 17 18 18 21 25 23 25 26 29 26
57 57 56 54 51 52 49 46 47 47 46 45 44 43 40 32 20 10 9 16 18 22 31 29 26 34 29 29 27 28 29 26 24 23 22 23 22 22 22 22 28 28 26 24 26 32 25 26 27 28 28 26 26 27 27 26 27 29 22 20 23 24 18 19 21 20 16 14 15 15 20 19 11 13 21 14 19 17 14 14 13 18 19 24 27 26 24 25
56 57 57 54 54 51 45 47 48 46 46 45 42 39 22 16 19 5 3 -8 5 23 29 30 32 33 31 35 34 29 28 27 27 21 21 21 24 22 22 23 23 23 21 22 24 27 25 25 26 30 31 28 31 25 24 26 25 25 22 21 20 19 17 14 16 13 14 11 17 15 18 16 12 7 14 14 14 15 17 15 15 18 20 26 27 28 27 27
56 56 56 55 52 51 51 51 48 47 48 46 42 27 20 17 16 16 10 14 8 31 22 37 32 31 34 32 30 32 32 28 26 21 30 26 24 27 30 27 31 28 17 27 21 22 24 26 26 30 28 28 30 21 22 21 20 21 20 21 20 17 15 13 12 11 11 21 15 12 18 8 9 11 14 12 13 14 17 19 24 23 21 24 30 31 27 29
56 56 55 54 52 52 52 50 49 48 47 44 33 18 22 6 16 30 20 14 17 30 33 32 30 32 33 28 34 32 26 34 27 24 26 25 21 23 24 28 26 28 23 20 17 21 17 17 23 25 21 32 28 24 27 26 21 20 26 22 21 17 14 10 5 4 8 11 17 15 14 17 15 7 15 13 13 14 17 20 24 26 28 30 27 28 29 28
56 56 56 54 53 53 50 49 48 50 44 37 27 22 17 15 16 12 16 20 18 29 29 31 32 31 30 30 30 31 31 27 30 27 24 24 20 20 24 23 30 26 28 18 20 19 20 18 29 28 28 29 29 32 31 27 22 23 26 25 20 20 15 8 14 12 16 13 15 16 13 14 9 18 24 21 20 18 19 19 22 22 23 27 25 25 25 25
55 55 56 52 51 53 50 49 49 48 42 34 25 22 18 17 17 25 21 18 23 29 29 31 33 27 26 26 28 31 33 28 30 27 24 25 26 25 28 28 28 25 23 20 22 21 17 14 25 27 26 24 23 28 28 29 20 20 22 22 21 24 15 14 21 20 18 15 13 20 11 16 14 14 15 16 17 17 19 17 18 19 22 26 27 28 26 27
53 54 51 51 52 52 50 48 49 44 38 34 24 21 21 23 23 29 30 12 19 27 27 13 23 20 21 20 26 28 30 27 26 24 23 25 23 28 25 29 32 29 25 24 23 27 20 22 25 27 24 24 21 22 27 27 27 22 20 20 28 30 26 19 11 18 14 10 15 19 17 11 13 12 18 15 15 15 17 17 17 20 24 23 27 30 29 30
53 52 52 51 52 52 50 50 50 44 39 31 24 27 30 24 20 13 29 25 24 30 25 18 19 29 23 19 18 25 30 25 26 24 22 23 19 33 29 27 30 28 24 27 21 31 27 17 23 23 23 25 24 26 24 27 26 21 20 31 17 15 15 15 15 11 10 12 13 13 13 15 13 12 13 13 15 15 14 16 17 17 20 22 25 26 27 27
53 51 47 51 52 51 50 50 49 41 37 29 26 26 30 25 22 25 26 23 32 29 20 23 14 25 24 16 17 25 27 20 24 23 19 22 21 30 27 29 30 28 25 26 22 25 31 18 17 24 23 24 23 23 20 20 25 26 24 20 21 15 22 18 15 18 12 12 12 14 17 12 18 13 15 12 15 18 15 16 16 17 18 20 23 26 27 28
50 46 45 51 52 51 51 50 45 42 35 27 27 27 34 29 26 27 25 21 26 22 21 18 24 11 23 23 28 19 27 26 23 24 22 25 23 26 25 30 32 32 25 26 26 32 22 20 17 20 24 24 18 20 20 22 21 18 16 16 14 22 19 19 15 18 12 12 10 10 11 13 16 12 13 12 9 15 16 18 22 21 20 21 23 26 28 27
50 46 45 51 51 51 51 48 41 36 34 33 32 29 30 27 29 25 28 27 31 26 21 26 23 14 16 22 19 23 23 24 22 20 23 22 20 17 27 29 34 28 29 30 27 27 24 18 19 18 18 17 21 25 27 29 26 21 17 16 16 18 16 14 15 17 19 12 12 9 12 15 15 8 11 12 11 18 19 20 22 23 20 21 25 25 26 29
47 40 44 51 51 51 47 39 38 40 37 32 30 31 30 33 31 33 29 30 30 25 26 25 28 25 19 15 21 26 24 23 24 22 22 23 26 19 30 28 31 29 26 25 24 28 25 22 22 21 20 22 25 21 21 23 27 24 20 19 22 17 17 15 13 19 16 17 18 16 13 14 19 17 19 19 16 15 21 21 21 22 22 22 24 26 27 26
45 44 47 50 51 49 45 38 40 38 36 36 39 37 35 34 30 32 27 29 26 28 28 28 24 25 27 20 27 21 25 21 27 24 25 26 26 25 32 27 33 31 32 23 28 24 29 24 21 19 23 20 19 20 22 21 26 21 21 21 20 15 17 16 17 13 15 16 14 14 12 15 20 21 18 20 24 24 21 22 22 22 22 23 25 27 26 26
46 43 43 49 51 49 42 33 34 36 37 39 38 36 36 31 31 31 29 28 26 29 25 24 27 19 22 28 21 18 24 16 28 26 25 28 26 27 30 34 27 28 26 23 26 31 22 23 20 21 22 21 20 18 18 20 22 18 18 19 22 23 21 20 20 17 14 17 14 13 12 15 21 22 24 22 20 19 18 19 21 24 25 29 25 26 27 25
45 44 43 45 49 48 40 41 38 36 37 37 37 36 36 35 37 29 27 28 27 25 27 23 20 28 26 29 26 20 25 18 18 29 23 20 20 28 31 34 26 26 24 34 31 30 23 23 21 19 17 15 15 13 16 19 18 18 19 19 21 22 19 16 16 18 15 17 13 14 12 12 12 15 17 18 19 18 18 18 18 22 26 25 27 29 27 26
42 36 41 41 44 43 42 44 40 40 37 37 37 37 37 35 36 38 34 30 26 28 25 32 33 28 25 27 24 22 23 26 22 21 24 24 25 26 26 29 29 29 32 33 33 28 27 22 20 18 18 18 18 19 13 23 18 19 20 21 19 22 23 20 21 18 16 16 16 17 16 14 15 13 13 12 12 12 12 17 18 19 19 22 25 28 30 28
44 41 35 32 40 40 38 40 39 40 35 39 34 36 35 36 36 36 38 31 32 28 29 29 30 25 23 25 23 20 23 23 27 25 23 21 27 25 26 30 28 30 34 31 32 29 28 20 22 20 20 19 20 21 18 24 17 18 21 19 20 21 24 24 20 17 17 18 14 19 20 21 18 16 16 15 15 15 15 14 14 19 23 25 24 24 26 22
40 42 41 39 36 32 34 34 37 36 38 38 36 37 36 36 35 34 36 36 37 36 29 32 29 27 24 24 25 23 22 22 24 23 25 24 24 25 23 27 27 32 30 28 32 26 20 20 23 23 21 20 19 16 16 16 16 15 19 20 18 20 24 23 23 21 19 18 15 17 19 20 18 16 16 15 16 16 16 14 14 16 19 22 26 24 23 21
47 42 44 43 39 38 37 36 37 37 36 37 37 37 36 36 35 36 36 34 34 33 30 28 29 28 26 27 28 25 25 23 24 25 25 25 25 25 25 26 29 30 29 26 26 29 25 22 23 23 22 22 22 22 22 19 14 15 16 19 20 20 21 22 22 23 21 19 20 21 20 18 17 15 14 15 18 19 17 18 20 21 21 22 23 24 25 25
42 43 39 44 42 40 38 37 37 38 35 37 35 35 36 36 36 37 37 35 33 33 34 31 32 33 32 31 30 26 26 26 26 26 28 26 27 27 25 24 26 28 29 27 27 30 23 22 26 23 22 22 21 22 21 20 18 17 18 21 21 17 16 20 23 23 24 20 21 21 21 20 20 19 19 21 21 21 20 19 18 20 21 21 21 22 22 22
46 48 46 42 38 40 40 38 37 37 35 36 35 35 36 36 36 37 37 38 36 34 34 32 33 33 33 30 30 29 29 29 29 28 30 30 25 29 26 30 31 28 29 28 28 27 26 24 26 24 21 21 23 22 21 20 20 19 18 19 19 19 17 19 20 20 20 21 19 20 21 20 19 20 20 21 19 20 20 20 21 21 22 21 23 23 23 24
47 47 47 45 38 40 38 39 39 37 33 35 36 35 35 35 37 37 35 37 37 37 36 35 34 33 33 30 29 30 31 31 30 30 30 35 30 34 35 36 36 30 29 28 30 28 27 25 23 23 21 21 25 26 25 24 23 23 23 20 21 20 21 21 22 23 22 22 21 21 20 19 20 21 20 20 19 20 21 21 23 22 23 24 24 24 24 24